Location: Weatherford
(35.5260°N, 98.7070°W)
Time: 17:16:57
(UTC-05:00)

OPAL - Visible Passes

Search period start: 16 October 2017 00:00
Search period end: 26 October 2017 00:00
Orbit: 744 x 795 km, 100.2° (Epoch: 16 October)

Date Brightness Start Highest point End Pass type
(mag) Time Alt. Az. Time Alt. Az. Time Alt. Az.
16 Oct 8.0 19:43:03 10° SE 19:47:35 35° ENE 19:52:11 10° N visible
16 Oct 9.7 21:22:34 10° SSW 21:26:29 23° W 21:30:27 10° NW visible
17 Oct 8.2 20:45:57 10° S 20:50:50 53° WSW 20:55:49 10° NNW visible
18 Oct 7.4 20:10:24 10° SSE 20:15:22 65° ENE 20:20:25 10° N visible
18 Oct 10.4 21:52:46 10° WSW 21:54:38 12° W 21:56:31 10° WNW visible
19 Oct 8.3 19:35:49 10° SE 19:40:06 29° ENE 19:44:26 10° N visible
19 Oct 9.3 21:14:32 10° SSW 21:18:51 29° W 21:23:14 10° NW visible
20 Oct 7.7 20:38:15 10° S 20:43:14 68° WSW 20:48:21 10° NNW visible
21 Oct 7.6 20:02:58 10° SE 20:07:50 52° ENE 20:12:47 10° N visible
21 Oct 10.2 21:44:00 10° SW 21:46:58 16° W 21:49:57 10° WNW visible
22 Oct 8.6 19:28:40 10° ESE 19:32:37 23° ENE 19:36:37 10° NNE visible
22 Oct 8.9 21:06:36 10° SSW 21:11:13 36° W 21:15:56 10° NNW visible
23 Oct 7.4 20:30:38 10° SSE 20:35:40 86° WSW 20:40:50 10° NNW visible
24 Oct 7.9 19:55:36 10° SE 20:00:19 41° ENE 20:05:07 10° N visible
24 Oct 9.9 21:35:40 10° SW 21:39:19 20° W 21:43:00 10° NW visible
25 Oct 8.8 19:21:39 10° ESE 19:25:09 19° ENE 19:28:42 10° NNE visible
25 Oct 8.4 20:58:47 10° S 21:03:37 46° WSW 21:08:33 10° NNW visible
